This demonstration page uses our WeatherBlox Daily Observations layout. Learn more.

Left ArrowRight Arrow

39.12711, -84.51439

Hourly Observations for August 31, 2016

Temp ( °F °C ) Dew Point ( °F °C ) Humidity (%) Winds ( mph kmh ) Pressure ( in mb ) Visibility ( mi km ) Precip ( " mm )
12:53 am 00:53 Clear 70 21.1 70 21.1 100 100 N N/A 30.05 1018 9 14 N/A
1:41 am 01:41 Mostly Clear 68 20 68 20 100 100 N N/A 30.03 1017 8 13 N/A
1:53 am 01:53 Clear 69 20.6 69 20.6 100 100 N N/A 30.04 1017 10 16 N/A
2:53 am 02:53 Clear 69 20.6 69 20.6 100 100 N N/A 30.02 1017 8 13 N/A
3:53 am 03:53 Clear 69 20.6 69 20.6 100 100 N N/A 30.01 1016 7 11 N/A
4:53 am 04:53 Clear 68 20 68 20 100 100 N N/A 30.00 1016 7 11 N/A
5:53 am 05:53 Mostly Clear with Mist and Fog 68 20 68 20 100 100 N N/A 30.00 1016 5 8 N/A
6:12 am 06:12 Clear with Mist and Fog 68 20 68 20 100 100 N N/A 29.97 1015 4 6 N/A
6:53 am 06:53 Mostly Clear 68 20 68 20 100 100 NE 3 6 30.01 1016 8 13 N/A
7:53 am 07:53 Partly Cloudy with Mist and Fog 69 20.6 69 20.6 100 100 NE 6 9 30.01 1016 6 10 N/A
8:53 am 08:53 Mostly Cloudy 72 22.2 71 21.7 97 97 NE 6 9 30.02 1017 8 13 N/A
9:53 am 09:53 Partly Cloudy 77 25 72 22.2 85 85 E 3 6 30.01 1016 10 16 N/A
10:53 am 10:53 Sunny 80 26.7 71 21.7 74 74 N N/A 30.00 1016 10 16 N/A
11:53 am 11:53 Mostly Sunny 82 27.8 73 22.8 74 74 VRB 3 6 29.98 1015 10 16 N/A
12:53 pm 12:53 Mostly Sunny 84 28.9 71 21.7 65 65 W 7 11 29.97 1015 10 16 N/A
1:53 pm 13:53 Mostly Sunny 87 30.6 72 22.2 61 61 VRB 7 11 29.95 1014 10 16 N/A
2:53 pm 14:53 Mostly Cloudy 84 28.9 69 20.6 61 61 NNW 6 9 29.94 1014 10 16 N/A
3:53 pm 15:53 Mostly Cloudy 87 30.6 70 21.1 57 57 WNW 7 11 29.91 1013 10 16 N/A
4:53 pm 16:53 Mostly Cloudy 83 28.3 70 21.1 65 65 NNW 17 28 29.91 1013 10 16 N/A
5:43 pm 17:43 Mostly Cloudy with Nearby Thunderstorms 79 26.1 72 22.2 79 79 N 6 9 29.91 1013 10 16 0.01 0.25
5:53 pm 17:53 Mostly Cloudy with Nearby Thunderstorms 79 26.1 71 21.7 77 77 NW 5 7 29.93 1013 10 16 0.01 0.25
6:06 pm 18:06 Partly Cloudy with Light Rain 78 25.6 71 21.7 79 79 NNW 5 7 29.91 1013 10 16 N/A
6:53 pm 18:53 Mostly Sunny 77 25 72 22.2 85 85 NNW 8 13 29.93 1014 10 16 N/A
7:53 pm 19:53 Sunny 76 24.4 70 21.1 82 82 ESE 5 7 29.93 1014 10 16 N/A
8:53 pm 20:53 Mostly Cloudy 73 22.8 71 21.7 94 94 N N/A 29.94 1014 10 16 N/A
9:53 pm 21:53 Partly Cloudy 72 22.2 71 21.7 97 97 ENE 3 6 29.96 1014 9 14 N/A
10:53 pm 22:53 Mostly Clear 70 21.1 70 21.1 100 100 N N/A 29.96 1014 8 13 N/A
11:53 pm 23:53 Clear 70 21.1 70 21.1 100 100 N N/A 29.96 1015 8 13 N/A

Powered by AerisWeather